Weather History for EINN - March, 2013

Change the Weather History Date:

Saturday, March 9, 2013

  Actual Average Record
Temperature  
Mean Temperature 50 °F -  
Max Temperature 56 °F 52 °F 57 °F (2012)
Min Temperature 44 °F 39 °F 33 °F (1997)
Degree Days  
Heating Degree Days 15    
Moisture  
Dew Point 45 °F    
Average Humidity 85    
Maximum Humidity 100    
Minimum Humidity 63    
Precipitation  
Precipitation 0.03 in 0.09 in - ()
Sea Level Pressure  
Sea Level Pressure 29.44 in    
Wind  
Wind Speed 15 mph ()    
Max Wind Speed 21 mph    
Max Gust Speed 32 mph    
Visibility 6.4 miles    
Events Rain    
Averages and records for this station are not official NWS values.
T = Trace of Precipitation, MM = Missing Value Source: Averaged Metar Reports

Daily Weather History Graph

Daily Weather History Graph

Search for Another Location

Airport or City:

Trip Planner

Search our weather history database for the weather conditions in past years. The results will help you decide how hot, cold, wet, or windy it might be!

Date:

Astronomy

Mar. 09, 2013 Rise Set
Actual Time 7:03 AM GMT 6:29 PM GMT
Civil Twilight 6:29 AM GMT 7:03 PM GMT
Nautical Twilight 5:50 AM GMT 7:43 PM GMT
Astronomical Twilight 5:09 AM GMT 8:24 PM GMT
Moon 5:35 AM GMT (3/9) 4:04 PM GMT (3/9)
Length of Visible Light 12h 33m
Length of Day
11h 25m
Waning Crescent, 7% of the Moon is Illuminated
Mar 9
Waning Crescent
Mar 11
New
Mar 19
First Quarter
Mar 27
Full
Apr 3
Last Quarter

Hourly Weather History & Observations

Time (GMT) Temp. Windchill Dew Point Humidity Pressure Visibility Wind Dir Wind Speed Gust Speed Precip Events Conditions
12:00 AM 50 °F - 47 °F 86% 29.35 in 12 mi East 15.7 mph - - Rain Light Drizzle
12:00 AM 50.0 °F - 46.4 °F 87% 29.33 in 6.2 mi East 16.1 mph - N/A   Mostly Cloudy
12:30 AM 50.0 °F - 48.2 °F 94% 29.33 in 6.2 mi East 16.1 mph - N/A   Mostly Cloudy
1:00 AM 50.0 °F - 48.2 °F 94% 29.33 in 6.2 mi East 13.8 mph - N/A   Mostly Cloudy
1:30 AM 50.0 °F - 48.2 °F 94% 29.33 in 6.2 mi East 15.0 mph - N/A   Mostly Cloudy
2:00 AM 50.0 °F - 46.4 °F 87% 29.33 in 5.0 mi East 19.6 mph 32.2 mph N/A   Light Drizzle
2:30 AM 50.0 °F - 46.4 °F 87% 29.30 in 6.2 mi East 20.7 mph - N/A   Light Drizzle
3:00 AM 48.2 °F - 48.2 °F 100% 29.30 in 6.2 mi East 17.3 mph - N/A   Mostly Cloudy
3:30 AM 50.0 °F - 46.4 °F 87% 29.33 in 6.2 mi East 16.1 mph - N/A   Mostly Cloudy
4:00 AM 50.0 °F - 46.4 °F 87% 29.33 in 6.2 mi ESE 16.1 mph - N/A   Mostly Cloudy
4:30 AM 50.0 °F - 46.4 °F 87% 29.33 in 6.2 mi ESE 17.3 mph - N/A   Mostly Cloudy
5:00 AM 50.0 °F - 46.4 °F 87% 29.33 in 6.2 mi ESE 18.4 mph - N/A   Mostly Cloudy
5:30 AM 50.0 °F - 46.4 °F 87% 29.36 in 6.2 mi SE 19.6 mph - N/A   Mostly Cloudy
6:00 AM 48 °F - 44 °F 83% 29.38 in 16 mi SE 20.1 mph - - Rain Light Drizzle
6:00 AM 48.2 °F - 44.6 °F 87% 29.36 in 6.2 mi SE 20.7 mph - N/A   Mostly Cloudy
6:30 AM 48.2 °F - 44.6 °F 87% 29.39 in 6.2 mi ESE 15.0 mph - N/A   Partly Cloudy
7:00 AM 48.2 °F - 42.8 °F 82% 29.42 in 6.2 mi ESE 13.8 mph - N/A   Mostly Cloudy
7:30 AM 48.2 °F - 42.8 °F 82% 29.42 in 6.2 mi SE 18.4 mph - N/A   Mostly Cloudy
8:00 AM 46.4 °F 40.1 °F 42.8 °F 87% 29.44 in 6.2 mi SE 15.0 mph - N/A   Mostly Cloudy
8:30 AM 48.2 °F - 42.8 °F 82% 29.44 in 6.2 mi ESE 13.8 mph - N/A   Mostly Cloudy
9:00 AM 48.2 °F - 42.8 °F 82% 29.44 in 6.2 mi ESE 12.7 mph - N/A   Mostly Cloudy
9:30 AM 50.0 °F - 44.6 °F 82% 29.44 in 6.2 mi ESE 15.0 mph - N/A   Mostly Cloudy
10:00 AM 50.0 °F - 44.6 °F 82% 29.44 in 6.2 mi ESE 13.8 mph - N/A   Mostly Cloudy
10:30 AM 51.8 °F - 44.6 °F 76% 29.47 in 6.2 mi ESE 12.7 mph - N/A   Mostly Cloudy
11:00 AM 53.6 °F - 46.4 °F 77% 29.47 in 6.2 mi ESE 12.7 mph - N/A   Mostly Cloudy
11:30 AM 51.8 °F - 44.6 °F 76% 29.47 in 6.2 mi ESE 13.8 mph - N/A   Scattered Clouds
12:00 PM 53.6 °F - 44.6 °F 72% 29.47 in 6.2 mi East 13.8 mph - N/A   Mostly Cloudy
12:30 PM 53.6 °F - 44.6 °F 72% 29.47 in 6.2 mi ESE 13.8 mph - N/A   Mostly Cloudy
1:00 PM 55.4 °F - 44.6 °F 67% 29.47 in 6.2 mi ESE 16.1 mph - N/A   Scattered Clouds
1:30 PM 55.4 °F - 42.8 °F 63% 29.47 in 6.2 mi ESE 16.1 mph - N/A   Scattered Clouds
2:00 PM 55.4 °F - 44.6 °F 67% 29.47 in 6.2 mi ESE 16.1 mph - N/A   Scattered Clouds
2:30 PM 55.4 °F - 44.6 °F 67% 29.47 in 6.2 mi ESE 16.1 mph - N/A   Mostly Cloudy
3:00 PM 53.6 °F - 46.4 °F 77% 29.47 in 6.2 mi East 17.3 mph - N/A   Mostly Cloudy
3:30 PM 51.8 °F - 46.4 °F 82% 29.47 in 6.2 mi East 16.1 mph - N/A   Mostly Cloudy
4:00 PM 51.8 °F - 46.4 °F 82% 29.47 in 6.2 mi East 15.0 mph - N/A   Mostly Cloudy
4:30 PM 50.0 °F - 48.2 °F 94% 29.47 in 6.2 mi East 13.8 mph - N/A   Mostly Cloudy
5:00 PM 50.0 °F - 48.2 °F 94% 29.50 in 6.2 mi East 12.7 mph - N/A   Mostly Cloudy
5:30 PM 50.0 °F - 46.4 °F 87% 29.50 in 6.2 mi East 13.8 mph - N/A   Mostly Cloudy
6:00 PM 49 °F - 47 °F 90% 29.52 in 7 mi East 11.2 mph - - Rain Light Rain Showers
6:00 PM 50.0 °F - 46.4 °F 87% 29.50 in 6.2 mi East 11.5 mph - N/A Rain Light Rain Showers
6:30 PM 50.0 °F - 46.4 °F 87% 29.50 in 6.2 mi East 12.7 mph - N/A Rain Light Rain Showers
7:00 PM 48.2 °F - 46.4 °F 93% 29.53 in 6.2 mi East 10.4 mph - N/A   Mostly Cloudy
7:30 PM 48.2 °F - 46.4 °F 93% 29.53 in 6.2 mi East 12.7 mph - N/A   Scattered Clouds
8:00 PM 48.2 °F - 46.4 °F 93% 29.53 in 5.0 mi East 15.0 mph - N/A Rain Light Rain Showers
8:30 PM 48.2 °F - 46.4 °F 93% 29.53 in 2.5 mi ENE 11.5 mph - N/A Rain Light Rain Showers
9:00 PM 46.4 °F 39.0 °F 44.6 °F 93% 29.53 in 5.0 mi ENE 19.6 mph - N/A Rain Light Rain Showers
9:30 PM 46.4 °F 39.2 °F 42.8 °F 87% 29.53 in 6.2 mi ENE 18.4 mph - N/A   Mostly Cloudy
10:00 PM 46.4 °F 39.5 °F 42.8 °F 87% 29.53 in 6.2 mi ENE 17.3 mph - N/A   Mostly Cloudy
10:30 PM 44.6 °F 37.8 °F 41.0 °F 87% 29.56 in 6.2 mi ENE 15.0 mph - N/A   Mostly Cloudy
11:00 PM 44.6 °F 36.6 °F 41.0 °F 87% 29.56 in 6.2 mi ENE 19.6 mph - N/A   Mostly Cloudy
11:30 PM 44.6 °F 36.4 °F 41.0 °F 87% 29.56 in 6.2 mi ENE 20.7 mph - N/A   Mostly Cloudy